Weather History for Mammoth, CA

Change the Weather History Date:

Wednesday, June 19, 2013

  Actual Average Record
Temperature  
Mean Temperature 56 °F -  
Max Temperature 69 °F 72 °F 84 °F (1997)
Min Temperature 42 °F 60 °F 41 °F (2012)
Degree Days  
Heating Degree Days 10    
Growing Degree Days 6 (Base 50)    
Moisture  
Dew Point 8 °F    
Average Humidity 16    
Maximum Humidity 40    
Minimum Humidity 6    
Precipitation  
Precipitation 0.00 in - - ()
Sea Level Pressure  
Sea Level Pressure 30.05 in    
Wind  
Wind Speed 15 mph (West)    
Max Wind Speed 28 mph    
Max Gust Speed 39 mph    
Visibility 10 miles    
Events      
Averages and records for this station are not official NWS values.
T = Trace of Precipitation, MM = Missing Value Source: NWS Daily Summary

Daily Weather History Graph

Daily Weather History Graph

Search for Another Location

Airport:

Trip Planner

Search our weather history database for the weather conditions in past years. The results will help you decide how hot, cold, wet, or windy it might be!

Date:

Astronomy

Jun. 19, 2013 Rise Set
Actual Time 5:33 AM PDT 8:19 PM PDT
Civil Twilight 5:02 AM PDT 8:51 PM PDT
Nautical Twilight 4:23 AM PDT 9:30 PM PDT
Astronomical Twilight 3:39 AM PDT 10:14 PM PDT
Moon 4:21 PM PDT (6/19) 2:17 AM PDT (6/19)
Length of Visible Light 15h 48m
Length of Day
14h 46m
Waxing Gibbous, 81% of the Moon is Illuminated
Jun 19
Waxing Gibbous
Jun 23
Full
Jun 29
Last Quarter
Jul 8
New
Jul 15
First Quarter

Hourly Weather History & Observations

Time (PDT) Temp. Windchill Dew Point Humidity Pressure Visibility Wind Dir Wind Speed Gust Speed Precip Events Conditions
12:15 AM 53.6 °F - 8.6 °F 16% 29.99 in 10.0 mi SW 18.4 mph 39.1 mph N/A   Clear
12:35 AM 53.6 °F - 8.6 °F 16% 29.98 in 10.0 mi SW 27.6 mph 38.0 mph N/A   Clear
12:55 AM 53.6 °F - 6.8 °F 15% 29.99 in 10.0 mi SW 13.8 mph 33.4 mph N/A   Clear
1:15 AM 51.8 °F - 5.0 °F 15% 29.99 in 10.0 mi SSW 15.0 mph 29.9 mph N/A   Clear
1:35 AM 51.8 °F - 6.8 °F 16% 29.99 in 10.0 mi SSW 23.0 mph 31.1 mph N/A   Clear
1:55 AM 51.8 °F - 6.8 °F 16% 29.99 in 10.0 mi West 8.1 mph 28.8 mph N/A   Clear
2:15 AM 51.8 °F - 6.8 °F 16% 29.99 in 10.0 mi SW 8.1 mph 23.0 mph N/A   Clear
2:35 AM 51.8 °F - 6.8 °F 16% 29.99 in 10.0 mi SW 17.3 mph 24.2 mph N/A   Clear
2:55 AM 51.8 °F - 8.6 °F 18% 29.98 in 10.0 mi SSW 12.7 mph 24.2 mph N/A   Clear
3:15 AM 50.0 °F - 8.6 °F 19% 29.99 in 10.0 mi South 5.8 mph 23.0 mph N/A   Clear
3:35 AM 46.4 °F 43.5 °F 12.2 °F 25% 29.99 in 10.0 mi North 5.8 mph - N/A   Clear
3:55 AM 50.0 °F - 5.0 °F 16% 29.99 in 10.0 mi SW 11.5 mph 19.6 mph N/A   Clear
4:15 AM 50.0 °F - 5.0 °F 16% 29.99 in 10.0 mi West 6.9 mph 31.1 mph N/A   Clear
4:35 AM 48.2 °F - 6.8 °F 19% 30.00 in 10.0 mi WNW 10.4 mph 32.2 mph N/A   Clear
4:55 AM 50.0 °F - -4.0 °F 11% 30.00 in 10.0 mi West 16.1 mph 34.5 mph N/A   Clear
5:15 AM 51.8 °F - -7.6 °F 8% 30.00 in 10.0 mi WSW 13.8 mph 28.8 mph N/A   Clear
5:35 AM 51.8 °F - -9.4 °F 8% 30.00 in 10.0 mi WSW 25.3 mph 29.9 mph N/A   Clear
5:55 AM 48.2 °F - 5.0 °F 17% 30.00 in 10.0 mi WNW 13.8 mph 25.3 mph N/A   Clear
6:15 AM 42.8 °F 36.6 °F 12.2 °F 29% 30.01 in 10.0 mi North 11.5 mph 17.3 mph N/A   Clear
6:35 AM 48.2 °F - -0.4 °F 13% 30.01 in 10.0 mi NW 8.1 mph 16.1 mph N/A   Clear
6:55 AM 51.8 °F - -2.2 °F 11% 30.02 in 10.0 mi WNW 8.1 mph 19.6 mph N/A   Clear
7:15 AM 51.8 °F - -0.4 °F 12% 30.02 in 10.0 mi NW 13.8 mph 25.3 mph N/A   Clear
7:35 AM 53.6 °F - -2.2 °F 10% 30.01 in 10.0 mi NW 15.0 mph 20.7 mph N/A   Clear
7:55 AM 55.4 °F - -4.0 °F 9% 30.01 in 10.0 mi NW 17.3 mph 24.2 mph N/A   Clear
8:15 AM 57.2 °F - -5.8 °F 8% 30.02 in 10.0 mi WNW 19.6 mph 26.5 mph N/A   Clear
8:35 AM 59.0 °F - -9.4 °F 6% 30.03 in 10.0 mi West 15.0 mph 27.6 mph N/A   Clear
8:55 AM 60.8 °F - -4.0 °F 7% 30.03 in 10.0 mi WNW 18.4 mph 23.0 mph N/A   Clear
9:15 AM 60.8 °F - -5.8 °F 7% 30.03 in 10.0 mi West 15.0 mph 31.1 mph N/A   Clear
9:35 AM 60.8 °F - -5.8 °F 7% 30.04 in 10.0 mi WNW 24.2 mph 34.5 mph N/A   Clear
9:55 AM 62.6 °F - -5.8 °F 6% 30.04 in 10.0 mi West 20.7 mph 34.5 mph N/A   Clear
10:15 AM 62.6 °F - -2.2 °F 7% 30.05 in 10.0 mi West 24.2 mph 34.5 mph N/A   Clear
10:35 AM 62.6 °F - -2.2 °F 7% 30.05 in 10.0 mi West 21.9 mph 27.6 mph N/A   Clear
10:55 AM 64.4 °F - -0.4 °F 7% 30.06 in 10.0 mi WNW 24.2 mph 27.6 mph N/A   Clear
11:15 AM 64.4 °F - -0.4 °F 7% 30.06 in 10.0 mi West 18.4 mph 27.6 mph N/A   Clear
11:35 AM 66.2 °F - -2.2 °F 6% 30.06 in 10.0 mi West 18.4 mph 26.5 mph N/A   Clear
11:55 AM 66.2 °F - -0.4 °F 7% 30.07 in 10.0 mi West 16.1 mph 25.3 mph N/A   Clear
12:15 PM 66.2 °F - 1.4 °F 8% 30.07 in 10.0 mi West 18.4 mph 25.3 mph N/A   Clear
12:35 PM 66.2 °F - 1.4 °F 8% 30.07 in 10.0 mi WNW 11.5 mph 20.7 mph N/A   Clear
12:55 PM 68.0 °F - 3.2 °F 8% 30.07 in 10.0 mi West 4.6 mph 20.7 mph N/A   Clear
1:15 PM 68.0 °F - 6.8 °F 9% 30.08 in 10.0 mi WNW 20.7 mph 24.2 mph N/A   Clear
1:35 PM 68.0 °F - 6.8 °F 9% 30.08 in 10.0 mi WNW 16.1 mph 28.8 mph N/A   Clear
1:55 PM 68.0 °F - 8.6 °F 10% 30.08 in 10.0 mi West 13.8 mph 27.6 mph N/A   Clear
2:15 PM 68.0 °F - 8.6 °F 10% 30.07 in 10.0 mi NW 18.4 mph 25.3 mph N/A   Clear
2:35 PM 69.8 °F - 8.6 °F 9% 30.07 in 10.0 mi West 13.8 mph 25.3 mph N/A   Clear
2:55 PM 68.0 °F - 10.4 °F 11% 30.07 in 10.0 mi WNW 20.7 mph 26.5 mph N/A   Clear
3:15 PM 69.8 °F - 10.4 °F 10% 30.07 in 10.0 mi WNW 19.6 mph 29.9 mph N/A   Clear
3:35 PM 68.0 °F - 10.4 °F 11% 30.06 in 10.0 mi WNW 18.4 mph 29.9 mph N/A   Clear
3:55 PM 69.8 °F - 14.0 °F 12% 30.06 in 10.0 mi WNW 19.6 mph 28.8 mph N/A   Clear
4:15 PM 68.0 °F - 14.0 °F 12% 30.07 in 10.0 mi WNW 21.9 mph 34.5 mph N/A   Clear
4:35 PM 68.0 °F - 14.0 °F 12% 30.07 in 10.0 mi WNW 20.7 mph 31.1 mph N/A   Clear
4:55 PM 68.0 °F - 15.8 °F 13% 30.07 in 10.0 mi West 13.8 mph 24.2 mph N/A   Clear
5:15 PM 66.2 °F - 15.8 °F 14% 30.07 in 10.0 mi WNW 18.4 mph 32.2 mph N/A   Clear
5:35 PM 66.2 °F - 15.8 °F 14% 30.07 in 10.0 mi WNW 19.6 mph 27.6 mph N/A   Clear
5:55 PM 66.2 °F - 10.4 °F 11% 30.07 in 10.0 mi West 18.4 mph 31.1 mph N/A   Clear
6:15 PM 66.2 °F - 8.6 °F 11% 30.07 in 10.0 mi WNW 19.6 mph - N/A   Clear
6:35 PM 64.4 °F - 12.2 °F 13% 30.08 in 10.0 mi WNW 17.3 mph 25.3 mph N/A   Clear
6:55 PM 62.6 °F - 8.6 °F 12% 30.08 in 10.0 mi WNW 11.5 mph 24.2 mph N/A   Clear
7:15 PM 60.8 °F - 19.4 °F 20% 30.09 in 10.0 mi NW 16.1 mph 24.2 mph N/A   Clear
7:35 PM 59.0 °F - 21.2 °F 23% 30.09 in 10.0 mi NW 10.4 mph 20.7 mph N/A   Clear
7:55 PM 57.2 °F - 21.2 °F 25% 30.09 in 10.0 mi WNW 16.1 mph 19.6 mph N/A   Clear
8:15 PM 53.6 °F - 23.0 °F 30% 30.09 in 10.0 mi WNW 17.3 mph 25.3 mph N/A   Clear
8:35 PM 53.6 °F - 24.8 °F 33% 30.09 in 10.0 mi WNW 19.6 mph 26.5 mph N/A   Clear
8:55 PM 50.0 °F - 26.6 °F 40% 30.09 in 10.0 mi West 11.5 mph - N/A   Clear
9:15 PM 50.0 °F - 24.8 °F 37% 30.09 in 10.0 mi WNW 6.9 mph 11.5 mph N/A   Clear
9:35 PM 50.0 °F - 23.0 °F 35% 30.09 in 10.0 mi SSE 3.5 mph - N/A   Clear
9:55 PM 50.0 °F - 17.6 °F 28% 30.09 in 10.0 mi Calm Calm - N/A   Clear
10:15 PM 48.2 °F - 17.6 °F 30% 30.10 in 10.0 mi Calm Calm - N/A   Clear
10:35 PM 42.8 °F 40.1 °F 15.8 °F 34% 30.09 in 10.0 mi WSW 4.6 mph - N/A   Clear
10:55 PM 42.8 °F 40.1 °F 15.8 °F 34% 30.09 in 10.0 mi West 4.6 mph - N/A   Clear
11:15 PM 44.6 °F 39.2 °F 15.8 °F 31% 30.09 in 10.0 mi West 10.4 mph - N/A   Clear
11:35 PM 44.6 °F 40.7 °F 14.0 °F 29% 30.09 in 10.0 mi WNW 6.9 mph - N/A   Clear
11:55 PM 44.6 °F - 14.0 °F 29% 30.08 in 10.0 mi Calm Calm - N/A   Clear